(277169) = 2005 NF84 = 2004 BW22

Discovered at Kitt Peak on 2005-07-02 by Spacewatch.

Orbit

Orbit type: Main Belt

Note: WebGL enabled browser required.

epoch2023-09-13.0
epoch JD2460200.5
perihelion date2022-02-05.05721
perihelion JD2459615.55721
argument of perihelion (°)299.65191
ascending node (°)298.74569
inclination (°)6.80084
eccentricity0.0766072
perihelion distance (AU)2.0929693
Tisserand w.r.t. Jupiter3.6
ΔV w.r.t. Earth (km/sec)9.2
semimajor axis (AU)2.2666078
mean anomaly (°)168.94785
mean daily motion (°/day)0.28882800
aphelion distance (AU)2.440
period (years)3.41
P-vector [x]-0.51866028
P-vector [y]-0.73779024
P-vector [z]-0.43203828
Q-vector [x]0.84865299
Q-vector [y]-0.50562013
Q-vector [z]-0.15535891
absolute magnitude17.24
phase slope0.15
uncertainty0
referenceMPEC 2024-A26
observations used302
oppositions13
arc length (days)8322
first opposition used2001
last opposition used2024
residual rms (arc-secs)0.75
perturbers coarse indicatorM-v
perturbers precise indicator003Ek
first observation date used2001-03-21.0
last observation date used2024-01-02.0
computer nameMPCLINUX
Minimum Orbit Intersection Distances (in AU)
for orbit epoch: 2460200.5, reference: E2023-XU4
Mercury1.63025
Venus1.375
Earth1.08881
Mars0.56275
Jupiter2.58682
Saturn6.64607
Uranus16.2259
Neptune27.4437

Observations

309 total observations over interval: 2001 03 21.43165 – 2024 01 02.359469
These data are available for download (format description).

Date (UT) J2000 RA J2000 Dec Magn Location Ref
2001 03 21.43165 12 31 54.76 -16 08 35.6 21.0   608 – Haleakala-AMOS MPS 138666
2001 03 21.44250 12 31 54.11 -16 08 33.5 20.6   608 – Haleakala-AMOS MPS 138666
2001 03 21.45335 12 31 53.43 -16 08 32.9 20.4   608 – Haleakala-AMOS MPS 138666
2003 12 18.42308 09 09 11.78 +16 52 33.9 21.2 V 291 – LPL/Spacewatch II MPS 138666
2003 12 18.44717 09 09 11.43 +16 52 31.1 21.3 V 291 – LPL/Spacewatch II MPS 138666
2003 12 18.47128 09 09 11.04 +16 52 29.3 20.9 V 291 – LPL/Spacewatch II MPS 138666
2004 01 17.26120 08 49 06.49 +16 38 42.3 20.2   644 – Palomar Mountain/NEAT MPS 97116
2004 01 17.28696 08 49 04.78 +16 38 43.2 19.8   644 – Palomar Mountain/NEAT MPS 97116
2004 01 17.32963 08 49 01.94 +16 38 45.3 20.1   644 – Palomar Mountain/NEAT MPS 97116
2004 01 21.30782 08 44 38.82 +16 41 36.8 19.7 C 704 – Lincoln Laboratory ETS, New Mexico MPS 293200
2004 01 21.32113 08 44 38.02 +16 41 38.8 20.2   704 – Lincoln Laboratory ETS, New Mexico MPS 97116
2004 01 21.33435 08 44 36.97 +16 41 38.2 19.9   704 – Lincoln Laboratory ETS, New Mexico MPS 97116
2004 01 21.34721 08 44 36.09 +16 41 39.1 20.2   704 – Lincoln Laboratory ETS, New Mexico MPS 97116
2004 01 21.36023 08 44 35.16 +16 41 39.5 20.1   704 – Lincoln Laboratory ETS, New Mexico MPS 97116
2004 02 12.12139 08 19 56.13 +16 57 49.7 20.6 V 691 – Steward Observatory, Kitt Peak-Spacewatch MPS 138666
2004 02 12.14855 08 19 54.44 +16 57 50.5 20.5 V 691 – Steward Observatory, Kitt Peak-Spacewatch MPS 138666
2004 02 12.17567 08 19 52.73 +16 57 51.4 20.4 V 691 – Steward Observatory, Kitt Peak-Spacewatch MPS 138666
2005 07 02.31107 20 29 47.17 -20 11 13.9 20.3 V 691 – Steward Observatory, Kitt Peak-Spacewatch MPS 138510
2005 07 02.32852 20 29 46.26 -20 11 13.0 20.2 V 691 – Steward Observatory, Kitt Peak-Spacewatch MPS 138510
2005 07 02.34592 20 29 45.33 -20 11 12.1 20.2 V 691 – Steward Observatory, Kitt Peak-Spacewatch MPS 138510
2005 07 07.31854 20 25 15.21 -20 06 45.8 19.5 V 691 – Steward Observatory, Kitt Peak-Spacewatch MPS 138510
2005 07 07.33581 20 25 14.13 -20 06 45.2 19.8 V 691 – Steward Observatory, Kitt Peak-Spacewatch MPS 138510
2005 07 07.35316 20 25 13.08 -20 06 44.3 19.9 V 691 – Steward Observatory, Kitt Peak-Spacewatch MPS 138510
2005 07 15.34332 20 16 57.18 -20 00 37.7 19.4 V G96 – Mt. Lemmon Survey MPS 138666
2005 07 15.35199 20 16 56.60 -20 00 37.4 19.4 V G96 – Mt. Lemmon Survey MPS 138666
2005 07 15.36066 20 16 56.02 -20 00 37.5 19.1 V G96 – Mt. Lemmon Survey MPS 138666
2005 07 15.36935 20 16 55.38 -20 00 36.4 19.4 V G96 – Mt. Lemmon Survey MPS 138666
2009 09 30.29549 01 33 10.04 +21 42 37.6 20.3 V G96 – Mt. Lemmon Survey MPS 296919
2009 09 30.30169 01 33 09.68 +21 42 36.2 19.7 V G96 – Mt. Lemmon Survey MPS 296919
2009 09 30.30786 01 33 09.32 +21 42 36.0 20.4 V G96 – Mt. Lemmon Survey MPS 296919
2009 09 30.31395 01 33 08.96 +21 42 34.8 19.8 V G96 – Mt. Lemmon Survey MPS 296919
2011 01 27.30471 10 34 54.40 +03 28 48.2 19.8 V 691 – Steward Observatory, Kitt Peak-Spacewatch MPS 366993
2011 01 27.32407 10 34 53.64 +03 28 48.3 20.1 V 691 – Steward Observatory, Kitt Peak-Spacewatch MPS 366993
2011 01 27.34172 10 34 52.87 +03 28 47.1 20.5 V 691 – Steward Observatory, Kitt Peak-Spacewatch MPS 366993
2011 01 30.41408 10 32 44.516 +03 26 21.95 20.6 w F51 – Pan-STARRS 1, Haleakala MPS 379684
2011 01 30.42885 10 32 43.831 +03 26 21.52 20.5 w F51 – Pan-STARRS 1, Haleakala MPS 379684
2011 01 30.44491 10 32 43.083 +03 26 20.97 20.6 w F51 – Pan-STARRS 1, Haleakala MPS 379684
2011 01 30.45970 10 32 42.389 +03 26 20.54 20.7 w F51 – Pan-STARRS 1, Haleakala MPS 379684
2011 02 04.45625 10 28 40.293 +03 25 55.02 20.5 w F51 – Pan-STARRS 1, Haleakala MPS 379684
2011 02 04.47049 10 28 39.515 +03 25 55.29 20.5 w F51 – Pan-STARRS 1, Haleakala MPS 379684
2011 02 04.48496 10 28 38.720 +03 25 55.61 20.4 w F51 – Pan-STARRS 1, Haleakala MPS 379684
2011 02 04.49943 10 28 37.926 +03 25 55.89 20.6 w F51 – Pan-STARRS 1, Haleakala MPS 379684
2011 02 05.35669 10 27 52.70 +03 26 14.6 19.1 V 703 – Catalina Sky Survey MPS 369498
2011 02 05.36498 10 27 52.34 +03 26 15.3 19.6 V 703 – Catalina Sky Survey MPS 369498
2011 02 05.37328 10 27 51.76 +03 26 16.9 20.3 V 703 – Catalina Sky Survey MPS 369498
2011 02 05.38164 10 27 51.40 +03 26 17.3 19.8 V 703 – Catalina Sky Survey MPS 369498
2011 02 23.28961 10 09 28.90 +03 57 28.1 19.6 V 703 – Catalina Sky Survey MPS 371996
2011 02 23.29714 10 09 28.29 +03 57 32.2 19.9 V 703 – Catalina Sky Survey MPS 371996
2011 02 23.30461 10 09 27.75 +03 57 34.3 19.8 V 703 – Catalina Sky Survey MPS 371996
2011 02 23.31214 10 09 27.32 +03 57 35.2 19.9 V 703 – Catalina Sky Survey MPS 371996
2011 03 01.27382 10 03 02.34 +04 15 09.8 19.6 V 703 – Catalina Sky Survey MPS 371996
2011 03 01.28192 10 03 01.80 +04 15 12.1 20.5 V 703 – Catalina Sky Survey MPS 371996
2011 03 01.29000 10 03 01.22 +04 15 13.1 19.7 V 703 – Catalina Sky Survey MPS 371996
2011 03 01.29803 10 03 00.72 +04 15 14.8 19.7 V 703 – Catalina Sky Survey MPS 371996
2012 08 09.26186 22 07 58.39 -05 43 07.1 20.6 G G45 – Space Surveillance Telescope, Atom Site MPS 1608813
2012 08 09.27448 22 07 57.65 -05 43 07.9 20.6 G G45 – Space Surveillance Telescope, Atom Site MPS 1608813
2012 08 09.31643 22 07 55.07 -05 43 10.7 20.2 G G45 – Space Surveillance Telescope, Atom Site MPS 1608813
2012 08 09.34123 22 07 53.52 -05 43 12.2 20.2 G G45 – Space Surveillance Telescope, Atom Site MPS 1608813
2012 08 09.39645 22 07 50.15 -05 43 16.7 20.4 G G45 – Space Surveillance Telescope, Atom Site MPS 1608813
2012 08 10.25041 22 06 59.68 -05 44 24.4 19.7 G G45 – Space Surveillance Telescope, Atom Site MPS 1608813
2012 08 10.31743 22 06 55.55 -05 44 30.3 20.6 G G45 – Space Surveillance Telescope, Atom Site MPS 1608813
2012 08 10.35867 22 06 52.98 -05 44 34.1 20.4 G G45 – Space Surveillance Telescope, Atom Site MPS 1608813
2012 08 10.37206 22 06 52.17 -05 44 35.0 20.3 G G45 – Space Surveillance Telescope, Atom Site MPS 1608813
2012 08 26.35226 21 50 19.013 -06 18 51.50 19.4 i F51 – Pan-STARRS 1, Haleakala MPS 430980
2012 08 26.36396 21 50 18.270 -06 18 53.21 19.4 i F51 – Pan-STARRS 1, Haleakala MPS 430981
2012 08 26.44571 21 50 13.081 -06 19 06.44 19.5 r F51 – Pan-STARRS 1, Haleakala MPS 430981
2012 08 26.45635 21 50 12.437 -06 19 07.69 19.6 r F51 – Pan-STARRS 1, Haleakala MPS 430981
2015 07 13.29973 16 40 41.964 -28 01 18.33 19.8 w F51 – Pan-STARRS 1, Haleakala MPS 615800
2015 07 13.31032 16 40 41.752 -28 01 14.41 20.0 w F51 – Pan-STARRS 1, Haleakala MPS 615800
2015 07 13.32096 16 40 41.557 -28 01 10.51 20.0 w F51 – Pan-STARRS 1, Haleakala MPS 615800
2015 07 13.33157 16 40 41.347 -28 01 06.80 19.9 w F51 – Pan-STARRS 1, Haleakala MPS 615800
2016 07 17.58493 02 30 10.786 +21 35 24.23 22.1 w F51 – Pan-STARRS 1, Haleakala MPS 721036
2016 07 17.59030 02 30 11.205 +21 35 27.01 21.8 w F51 – Pan-STARRS 1, Haleakala MPS 721036
2016 07 17.59567 02 30 11.644 +21 35 29.88 22.0 w F51 – Pan-STARRS 1, Haleakala MPS 721036
2016 07 17.60105 02 30 12.058 +21 35 32.58 22.3 w F51 – Pan-STARRS 1, Haleakala MPS 721036
2016 10 22.47436 03 04 39.16 +28 36 34.0 20.1 V G96 – Mt. Lemmon Survey MPS 739244
2016 10 22.47952 03 04 38.89 +28 36 33.0 20.7 V G96 – Mt. Lemmon Survey MPS 739244
2016 10 22.48381 03 04 38.65 +28 36 32.8 20.7 V G96 – Mt. Lemmon Survey MPS 739244
2016 10 22.48820 03 04 38.37 +28 36 32.4 20.8 V G96 – Mt. Lemmon Survey MPS 739244
2016 11 02.74812 02 52 40.15 +27 56 04.4 19.5 R D29 – Purple Mountain Observatory, XuYi Station MPS 741725
2016 11 02.77286 02 52 38.44 +27 55 56.3 19.7 R D29 – Purple Mountain Observatory, XuYi Station MPS 741725
2016 11 18.17215 02 35 44.77 +26 24 12.1 20.1 V G96 – Mt. Lemmon Survey MPS 746977
2016 11 18.17922 02 35 44.33 +26 24 09.1 20.2 V G96 – Mt. Lemmon Survey MPS 746977
2016 11 18.18686 02 35 43.85 +26 24 06.0 20.2 V G96 – Mt. Lemmon Survey MPS 746977
2016 11 18.19410 02 35 43.39 +26 24 02.8 20.1 V G96 – Mt. Lemmon Survey MPS 746977
2016 11 18.21901 02 35 41.76 +26 23 53.3 20.6 V G96 – Mt. Lemmon Survey MPS 746977
2016 11 18.22329 02 35 41.58 +26 23 51.4 20.4 V G96 – Mt. Lemmon Survey MPS 746977
2016 11 18.22759 02 35 41.33 +26 23 49.2 20.9 V G96 – Mt. Lemmon Survey MPS 746977
2016 11 18.23205 02 35 41.02 +26 23 46.9 20.5 V G96 – Mt. Lemmon Survey MPS 746977
2018 01 01.63757 12 04 44.217 -06 01 01.04 21.1 i F51 – Pan-STARRS 1, Haleakala MPS 855433
2018 01 01.64956 12 04 44.821 -06 01 07.90 21.0 i F51 – Pan-STARRS 1, Haleakala MPS 855433
2018 01 01.65561 12 04 45.086 -06 01 11.64 21.0 i F51 – Pan-STARRS 1, Haleakala MPS 855433
